Back to catalog

STARLINK-35807

AliveCommunicationsVLEO
NORAD 66358·PAYLOAD·🇺🇸 United States

Launched Nov 6, 2025 from Vandenberg Space Force Base

Loading…

Next Passes (next 24 hours)

TLE

FreshSource: CelesTrak SupGP

Epoch: Sep 15, 2026, 04:13 UTC

1 66358C 25254L   26258.17618056 -.00022130  00000+0 -71166-3 0  2584
2 66358  53.1582  70.9855 0001098  88.0979 340.9886 15.31711980    12

Track STARLINK-35807 in real time with AllMySat

Download on the App Store